Regional Weather Roundup
Issued by NWS

Home | Current Version | Previous Version | Graphics & Text | Print | Product List | Glossary On
Versions: 1 2 3 4 5 6 7 8 9 10 11 12 13 14 15 16 17 18 19 20 21 22 23 24 25 26 27 28 29 30 31 32 33 34 35 36 37 38 39 40 41 42 43 44 45 46 47 48 49 50
000
ASUS43 KFSD 240202
RWRSD

WEATHER ROUNDUP FOR SOUTH DAKOTA
NATIONAL WEATHER SERVICE SIOUX FALLS SD
900 PM CDT TUE MAY 23 2017

NOTE: "FAIR" INDICATES FEW OR NO CLOUDS BELOW 12,000 FEET WITH NO
SIGNIFICANT WEATHER AND/OR OBSTRUCTIONS TO VISIBILITY.


SDZ001>005-009-010-012>017-240300-
NORTHWEST AND NORTH CENTRAL SOUTH DAKOTA

CITY           SKY/WX    TMP DP  RH WIND       PRES   REMARKS
BUFFALO          N/A     59  36  42 E9        29.94F
FAITH            N/A     50  38  63 E9        30.00F
MOBRIDGE       CLEAR     56  37  49 NE6       29.96F
$$

SDZ012>016-024>037-041>051-057-063-072>074-240300-
SOUTHWEST AND SOUTH CENTRAL SOUTH DAKOTA

CITY           SKY/WX    TMP DP  RH WIND       PRES   REMARKS
RAPID CTY ARPT CLEAR     52  36  54 NE7       30.02F
PIERRE         CLOUDY    56  38  50 NE9       29.98S
CUSTER         CLOUDY    50  28  42 N7        30.07F
ELLSWORTH AFB  CLEAR     57  34  41 NE6       30.02F
PHILIP         CLEAR     53  39  59 NE7       30.01S
PINE RIDGE     CLEAR     53  37  54 NE10      30.03S
SPEARFISH      FAIR      52  43  71 SE3       30.05F
WINNER         CLOUDY    53  42  66 N8        29.98F
$$

SDZ004>011-016>023-039-040-240300-
NORTHEAST SOUTH DAKOTA

CITY           SKY/WX    TMP DP  RH WIND       PRES   REMARKS
ABERDEEN       PTCLDY    53  40  61 N9        29.96S
WATERTOWN      PTCLDY    50  44  80 N14       29.90F
BROOKINGS      CLOUDY    50  46  86 N12       29.90R
SISSETON         N/A     50  45  83 N9        29.92S
$$

SDZ017-020-022-023-036>040-048>070-240300-
SOUTHEAST SOUTH DAKOTA

CITY           SKY/WX    TMP DP  RH WIND       PRES   REMARKS
SIOUX FALLS    MOCLDY    51  47  86 N10       29.87S
HURON          CLOUDY    52  45  77 N10       29.94S
CHAMBERLAIN    CLOUDY    55  43  66 N10       29.97S
MITCHELL       PTCLDY    51  45  79 N12       29.94S
YANKTON        MOCLDY    52  47  83 NW12      29.90R
$$

ABBREVIATIONS USED IN REMARKS
   TC - TEMPERATURE IN CELSIUS
  WCI - WIND CHILL INDEX
   HX - HEAT INDEX
  VSB - VISIBILITY





USA.gov is the U.S. government's official web portal to all federal, state and local government web resources and services.